User: anonymous   Login
Location: Tel Aviv
(32.0670°N, 34.7670°E)
Time: 04:43:27
(UTC+02:00)
Language:

SR - Orbit

View from above orbital plane
View from above orbital plane
View from above satellite
View from above satellite

Ground track
Ground track

The orbit data is extracted from the following two-line orbital elements,

1 00046U 60007B   22022.31255305  .00000271  00000-0  77106-4 0  9990
2 00046  66.6900 268.7066 0203803  54.6582 307.3387 14.49509038223720
Epoch (UTC): 22 January 2022 07:30:04
Eccentricity: 0.0203803
inclination: 66.6900°
perigee height: 582 km
apogee height: 872 km
right ascension of ascending node: 268.7066°
argument of perigee: 54.6582°
revolutions per day: 14.49509038
mean anomaly at epoch: 307.3387°
orbit number at epoch: 22372

The dashed part of the orbit path shows where the satellite is in the earth's shadow,  

DLR